(°C)
(°C)
NW
NW
NW
NW
NW
NNW
NNW
(km/h)
13-22
13-23
13-23
13-23
13-24
14-23
13-21
(mm)
0
0
0
0
0
0
0
(%)
0
0
0
0
0
0
0

Sonnenhöhe

/ 29.8°
sun-icon
UV 1
06:53
19:25
Zunehmender Mond (172°)
19:46
05:25

METAR für 57.92°N 56.02°O (USPP)

Zeit Bedingungen Temperatur/
Taupunkt
Wind Sichtweite Wetter Wolken Druck Änderung Roh
MVFR 5°C / 2°C 330º variable 290º to 010º 6kt >10km - Overcast 1500ft 1026 No Significant change. Runway 21: Clear and dry, 51-100% contamination with <1mm, friction coefficient 0.60. USPP 200600Z 33003MPS 290V010 9999 OVC015 05/02 Q1026 R21/090060 NOSIG RMK QFE759
MVFR 5°C / 2°C 330º variable 290º to 010º 6kt >10km - Overcast 1500ft 1026 No Significant change. Runway 03: Clear and dry, 51-100% contamination with <1mm, friction coefficient 0.60. USPP 200530Z 33003MPS 290V010 9999 OVC015 05/02 Q1026 R03/090060 NOSIG RMK QFE759
MVFR 5°C / 2°C 320º variable 290º to 360º 6kt >10km - Overcast 1400ft 1026 No Significant change. Runway 03: Clear and dry, 51-100% contamination with <1mm, friction coefficient 0.60. USPP 200500Z 32003MPS 290V360 9999 OVC014 05/02 Q1026 R03/090060 NOSIG RMK QFE758
MVFR 4°C / 2°C 320º variable 290º to 360º 6kt >10km - Overcast 1500ft 1025 No Significant change. Runway 21: Clear and dry, 51-100% contamination with <1mm, friction coefficient 0.60. USPP 200430Z 32003MPS 290V360 9999 OVC015 04/02 Q1025 R21/090060 NOSIG RMK QFE758
MVFR 4°C / 2°C 330º variable 290º to 010º 6kt >10km - Overcast 1500ft 1025 No Significant change. Runway 21: Clear and dry, 51-100% contamination with <1mm, friction coefficient 0.60. USPP 200400Z 33003MPS 290V010 9999 OVC015 04/02 Q1025 R21/090060 NOSIG RMK QFE758
MVFR 4°C / 2°C 330º variable 300º to 020º 6kt >10km - Overcast 1600ft 1025 No Significant change. Runway 21: Clear and dry, 51-100% contamination with <1mm, friction coefficient 0.60. USPP 200330Z 33003MPS 300V020 9999 OVC016 04/02 Q1025 R21/090060 NOSIG RMK QFE758
MVFR 4°C / 2°C 320º variable 290º to 350º 6kt >10km - Overcast 1900ft 1025 No Significant change. Runway 21: Clear and dry, 51-100% contamination with <1mm, friction coefficient 0.60. USPP 200300Z 32003MPS 290V350 9999 OVC019 04/02 Q1025 R21/090060 NOSIG RMK QFE758
VFR 4°C / 1°C 310º variable 290º to 360º 6kt >10km - Overcast 4800ft 1025 No Significant change. Runway 21: Clear and dry, 51-100% contamination with <1mm, friction coefficient 0.60. USPP 200230Z 31003MPS 290V360 9999 OVC048 04/01 Q1025 R21/090060 NOSIG RMK QFE757
VFR 4°C / 1°C 320º variable 290º to 360º 6kt >10km - Overcast 4600ft 1024 No Significant change. Runway 21: Clear and dry, 51-100% contamination with <1mm, friction coefficient 0.60. USPP 200200Z 32003MPS 290V360 9999 OVC046 04/01 Q1024 R21/090060 NOSIG RMK QFE757
VFR 4°C / 1°C 320º variable 290º to 350º 6kt >10km - Overcast 4400ft 1024 No Significant change. Runway 21: Clear and dry, 51-100% contamination with <1mm, friction coefficient 0.60. USPP 200130Z 32003MPS 290V350 9999 OVC044 04/01 Q1024 R21/090060 NOSIG RMK QFE757
VFR 4°C / 1°C 320º variable 290º to 360º 8kt >10km - Overcast 4400ft 1024 No Significant change. Runway 21: Clear and dry, 51-100% contamination with <1mm, friction coefficient 0.60. USPP 200100Z 32004MPS 290V360 9999 OVC044 04/01 Q1024 R21/090060 NOSIG RMK QFE757
VFR 4°C / 1°C 320º variable 290º to 350º 6kt >10km - Overcast 4300ft 1024 No Significant change. Runway 21: Clear and dry, 51-100% contamination with <1mm, friction coefficient 0.60. USPP 200030Z 32003MPS 290V350 9999 OVC043 04/01 Q1024 R21/090060 NOSIG RMK QFE757
VFR 4°C / 1°C 310º variable 280º to 350º 6kt >10km - Overcast 4300ft 1023 No Significant change. Runway 21: Clear and dry, 51-100% contamination with <1mm, friction coefficient 0.60. USPP 200000Z 31003MPS 280V350 9999 OVC043 04/01 Q1023 R21/090060 NOSIG RMK QFE757
VFR 4°C / 1°C 300º 8kt >10km - Overcast 4300ft 1023 No Significant change. Runway 21: Clear and dry, 51-100% contamination with <1mm, friction coefficient 0.60. USPP 192330Z 30004MPS 9999 OVC043 04/01 Q1023 R21/090060 NOSIG RMK QFE756
VFR 4°C / 1°C 310º 8kt >10km - Overcast 4400ft 1023 No Significant change. Runway 21: Clear and dry, 51-100% contamination with <1mm, friction coefficient 0.60. USPP 192300Z 31004MPS 9999 OVC044 04/01 Q1023 R21/090060 NOSIG RMK QFE756
VFR 4°C / 1°C 300º 8kt >10km - Overcast 4400ft 1023 No Significant change. Runway 21: Clear and dry, 51-100% contamination with <1mm, friction coefficient 0.60. USPP 192230Z 30004MPS 9999 OVC044 04/01 Q1023 R21/090060 NOSIG RMK QFE756
VFR 4°C / 1°C 310º 8kt >10km - Broken Clouds 4500ft 1022 No Significant change. Runway 21: Clear and dry, 51-100% contamination with <1mm, friction coefficient 0.60. USPP 192200Z 31004MPS 9999 BKN045 04/01 Q1022 R21/090060 NOSIG RMK QFE756
VFR 4°C / 1°C 310º 6kt >10km - Broken Clouds 4500ft 1022 No Significant change. Runway 21: Clear and dry, 51-100% contamination with <1mm, friction coefficient 0.60. USPP 192130Z 31003MPS 9999 BKN045 04/01 Q1022 R21/090060 NOSIG RMK QFE756
VFR 4°C / 1°C 320º variable 290º to 360º 6kt >10km - Broken Clouds 4500ft 1022 No Significant change. Runway 21: Clear and dry, 51-100% contamination with <1mm, friction coefficient 0.60. USPP 192100Z 32003MPS 290V360 9999 BKN045 04/01 Q1022 R21/090060 NOSIG RMK QFE756
VFR 4°C / 1°C 330º variable 300º to 360º 8kt >10km - Broken Clouds 4400ft 1022 No Significant change. Runway 21: Clear and dry, 51-100% contamination with <1mm, friction coefficient 0.60. USPP 192030Z 33004MPS 300V360 9999 BKN044 04/01 Q1022 R21/090060 NOSIG RMK QFE756
VFR 4°C / 0°C 340º variable 300º to 010º 6kt >10km - Overcast 4400ft 1022 No Significant change. Runway 21: Clear and dry, 51-100% contamination with <1mm, friction coefficient 0.60. USPP 192000Z 34003MPS 300V010 9999 OVC044 04/00 Q1022 R21/090060 NOSIG RMK QFE755
VFR 5°C / 0°C 320º variable 290º to 010º 6kt >10km - Overcast 4700ft 1022 No Significant change. Runway 21: Clear and dry, 51-100% contamination with <1mm, friction coefficient 0.60. USPP 191930Z 32003MPS 290V010 9999 OVC047 05/00 Q1022 R21/090060 NOSIG RMK QFE755
VFR 5°C / 0°C 310º variable 280º to 340º 8kt >10km - Broken Clouds 3100ft 1022 No Significant change. Runway 21: Clear and dry, 51-100% contamination with <1mm, friction coefficient 0.60. USPP 191900Z 31004MPS 280V340 9999 BKN031 05/00 Q1022 R21/090060 NOSIG RMK QFE755
VFR 5°C / 0°C 310º 6kt >10km - Broken Clouds 4300ft 1021 No Significant change. Runway 21: Clear and dry, 51-100% contamination with <1mm, friction coefficient 0.60. USPP 191830Z 31003MPS 9999 BKN043 05/M00 Q1021 R21/090060 NOSIG RMK QFE755

MVFR

5°C / 2°C

[Mehr]
Wind 330º variable 290º to 010º 6kt
Sichtweite >10km
Wetter -
Wolken Overcast 1500ft
Druck 1026
Änderung No Significant change. Runway 21: Clear and dry, 51-100% contamination with <1mm, friction coefficient 0.60.
Roh USPP 200600Z 33003MPS 290V010 9999 OVC015 05/02 Q1026 R21/090060 NOSIG RMK QFE759

MVFR

5°C / 2°C

[Mehr]
Wind 330º variable 290º to 010º 6kt
Sichtweite >10km
Wetter -
Wolken Overcast 1500ft
Druck 1026
Änderung No Significant change. Runway 03: Clear and dry, 51-100% contamination with <1mm, friction coefficient 0.60.
Roh USPP 200530Z 33003MPS 290V010 9999 OVC015 05/02 Q1026 R03/090060 NOSIG RMK QFE759

MVFR

5°C / 2°C

[Mehr]
Wind 320º variable 290º to 360º 6kt
Sichtweite >10km
Wetter -
Wolken Overcast 1400ft
Druck 1026
Änderung No Significant change. Runway 03: Clear and dry, 51-100% contamination with <1mm, friction coefficient 0.60.
Roh USPP 200500Z 32003MPS 290V360 9999 OVC014 05/02 Q1026 R03/090060 NOSIG RMK QFE758

MVFR

4°C / 2°C

[Mehr]
Wind 320º variable 290º to 360º 6kt
Sichtweite >10km
Wetter -
Wolken Overcast 1500ft
Druck 1025
Änderung No Significant change. Runway 21: Clear and dry, 51-100% contamination with <1mm, friction coefficient 0.60.
Roh USPP 200430Z 32003MPS 290V360 9999 OVC015 04/02 Q1025 R21/090060 NOSIG RMK QFE758

MVFR

4°C / 2°C

[Mehr]
Wind 330º variable 290º to 010º 6kt
Sichtweite >10km
Wetter -
Wolken Overcast 1500ft
Druck 1025
Änderung No Significant change. Runway 21: Clear and dry, 51-100% contamination with <1mm, friction coefficient 0.60.
Roh USPP 200400Z 33003MPS 290V010 9999 OVC015 04/02 Q1025 R21/090060 NOSIG RMK QFE758

MVFR

4°C / 2°C

[Mehr]
Wind 330º variable 300º to 020º 6kt
Sichtweite >10km
Wetter -
Wolken Overcast 1600ft
Druck 1025
Änderung No Significant change. Runway 21: Clear and dry, 51-100% contamination with <1mm, friction coefficient 0.60.
Roh USPP 200330Z 33003MPS 300V020 9999 OVC016 04/02 Q1025 R21/090060 NOSIG RMK QFE758

MVFR

4°C / 2°C

[Mehr]
Wind 320º variable 290º to 350º 6kt
Sichtweite >10km
Wetter -
Wolken Overcast 1900ft
Druck 1025
Änderung No Significant change. Runway 21: Clear and dry, 51-100% contamination with <1mm, friction coefficient 0.60.
Roh USPP 200300Z 32003MPS 290V350 9999 OVC019 04/02 Q1025 R21/090060 NOSIG RMK QFE758

VFR

4°C / 1°C

[Mehr]
Wind 310º variable 290º to 360º 6kt
Sichtweite >10km
Wetter -
Wolken Overcast 4800ft
Druck 1025
Änderung No Significant change. Runway 21: Clear and dry, 51-100% contamination with <1mm, friction coefficient 0.60.
Roh USPP 200230Z 31003MPS 290V360 9999 OVC048 04/01 Q1025 R21/090060 NOSIG RMK QFE757

VFR

4°C / 1°C

[Mehr]
Wind 320º variable 290º to 360º 6kt
Sichtweite >10km
Wetter -
Wolken Overcast 4600ft
Druck 1024
Änderung No Significant change. Runway 21: Clear and dry, 51-100% contamination with <1mm, friction coefficient 0.60.
Roh USPP 200200Z 32003MPS 290V360 9999 OVC046 04/01 Q1024 R21/090060 NOSIG RMK QFE757

VFR

4°C / 1°C

[Mehr]
Wind 320º variable 290º to 350º 6kt
Sichtweite >10km
Wetter -
Wolken Overcast 4400ft
Druck 1024
Änderung No Significant change. Runway 21: Clear and dry, 51-100% contamination with <1mm, friction coefficient 0.60.
Roh USPP 200130Z 32003MPS 290V350 9999 OVC044 04/01 Q1024 R21/090060 NOSIG RMK QFE757

VFR

4°C / 1°C

[Mehr]
Wind 320º variable 290º to 360º 8kt
Sichtweite >10km
Wetter -
Wolken Overcast 4400ft
Druck 1024
Änderung No Significant change. Runway 21: Clear and dry, 51-100% contamination with <1mm, friction coefficient 0.60.
Roh USPP 200100Z 32004MPS 290V360 9999 OVC044 04/01 Q1024 R21/090060 NOSIG RMK QFE757

VFR

4°C / 1°C

[Mehr]
Wind 320º variable 290º to 350º 6kt
Sichtweite >10km
Wetter -
Wolken Overcast 4300ft
Druck 1024
Änderung No Significant change. Runway 21: Clear and dry, 51-100% contamination with <1mm, friction coefficient 0.60.
Roh USPP 200030Z 32003MPS 290V350 9999 OVC043 04/01 Q1024 R21/090060 NOSIG RMK QFE757

VFR

4°C / 1°C

[Mehr]
Wind 310º variable 280º to 350º 6kt
Sichtweite >10km
Wetter -
Wolken Overcast 4300ft
Druck 1023
Änderung No Significant change. Runway 21: Clear and dry, 51-100% contamination with <1mm, friction coefficient 0.60.
Roh USPP 200000Z 31003MPS 280V350 9999 OVC043 04/01 Q1023 R21/090060 NOSIG RMK QFE757

VFR

4°C / 1°C

[Mehr]
Wind 300º 8kt
Sichtweite >10km
Wetter -
Wolken Overcast 4300ft
Druck 1023
Änderung No Significant change. Runway 21: Clear and dry, 51-100% contamination with <1mm, friction coefficient 0.60.
Roh USPP 192330Z 30004MPS 9999 OVC043 04/01 Q1023 R21/090060 NOSIG RMK QFE756

VFR

4°C / 1°C

[Mehr]
Wind 310º 8kt
Sichtweite >10km
Wetter -
Wolken Overcast 4400ft
Druck 1023
Änderung No Significant change. Runway 21: Clear and dry, 51-100% contamination with <1mm, friction coefficient 0.60.
Roh USPP 192300Z 31004MPS 9999 OVC044 04/01 Q1023 R21/090060 NOSIG RMK QFE756

VFR

4°C / 1°C

[Mehr]
Wind 300º 8kt
Sichtweite >10km
Wetter -
Wolken Overcast 4400ft
Druck 1023
Änderung No Significant change. Runway 21: Clear and dry, 51-100% contamination with <1mm, friction coefficient 0.60.
Roh USPP 192230Z 30004MPS 9999 OVC044 04/01 Q1023 R21/090060 NOSIG RMK QFE756

VFR

4°C / 1°C

[Mehr]
Wind 310º 8kt
Sichtweite >10km
Wetter -
Wolken Broken Clouds 4500ft
Druck 1022
Änderung No Significant change. Runway 21: Clear and dry, 51-100% contamination with <1mm, friction coefficient 0.60.
Roh USPP 192200Z 31004MPS 9999 BKN045 04/01 Q1022 R21/090060 NOSIG RMK QFE756

VFR

4°C / 1°C

[Mehr]
Wind 310º 6kt
Sichtweite >10km
Wetter -
Wolken Broken Clouds 4500ft
Druck 1022
Änderung No Significant change. Runway 21: Clear and dry, 51-100% contamination with <1mm, friction coefficient 0.60.
Roh USPP 192130Z 31003MPS 9999 BKN045 04/01 Q1022 R21/090060 NOSIG RMK QFE756

VFR

4°C / 1°C

[Mehr]
Wind 320º variable 290º to 360º 6kt
Sichtweite >10km
Wetter -
Wolken Broken Clouds 4500ft
Druck 1022
Änderung No Significant change. Runway 21: Clear and dry, 51-100% contamination with <1mm, friction coefficient 0.60.
Roh USPP 192100Z 32003MPS 290V360 9999 BKN045 04/01 Q1022 R21/090060 NOSIG RMK QFE756

VFR

4°C / 1°C

[Mehr]
Wind 330º variable 300º to 360º 8kt
Sichtweite >10km
Wetter -
Wolken Broken Clouds 4400ft
Druck 1022
Änderung No Significant change. Runway 21: Clear and dry, 51-100% contamination with <1mm, friction coefficient 0.60.
Roh USPP 192030Z 33004MPS 300V360 9999 BKN044 04/01 Q1022 R21/090060 NOSIG RMK QFE756

VFR

4°C / 0°C

[Mehr]
Wind 340º variable 300º to 010º 6kt
Sichtweite >10km
Wetter -
Wolken Overcast 4400ft
Druck 1022
Änderung No Significant change. Runway 21: Clear and dry, 51-100% contamination with <1mm, friction coefficient 0.60.
Roh USPP 192000Z 34003MPS 300V010 9999 OVC044 04/00 Q1022 R21/090060 NOSIG RMK QFE755

VFR

5°C / 0°C

[Mehr]
Wind 320º variable 290º to 010º 6kt
Sichtweite >10km
Wetter -
Wolken Overcast 4700ft
Druck 1022
Änderung No Significant change. Runway 21: Clear and dry, 51-100% contamination with <1mm, friction coefficient 0.60.
Roh USPP 191930Z 32003MPS 290V010 9999 OVC047 05/00 Q1022 R21/090060 NOSIG RMK QFE755

VFR

5°C / 0°C

[Mehr]
Wind 310º variable 280º to 340º 8kt
Sichtweite >10km
Wetter -
Wolken Broken Clouds 3100ft
Druck 1022
Änderung No Significant change. Runway 21: Clear and dry, 51-100% contamination with <1mm, friction coefficient 0.60.
Roh USPP 191900Z 31004MPS 280V340 9999 BKN031 05/00 Q1022 R21/090060 NOSIG RMK QFE755

VFR

5°C / 0°C

[Mehr]
Wind 310º 6kt
Sichtweite >10km
Wetter -
Wolken Broken Clouds 4300ft
Druck 1021
Änderung No Significant change. Runway 21: Clear and dry, 51-100% contamination with <1mm, friction coefficient 0.60.
Roh USPP 191830Z 31003MPS 9999 BKN043 05/M00 Q1021 R21/090060 NOSIG RMK QFE755

TAF für 57.92°N 56.02°O (USPP)

From till


From till Wind 360º 6kt. Gust 25kt. Visibility 10km or more. Broken Clouds 1600ft.
Becoming from till Wind 40º 6kt. Gust 16kt. Visibility 6000m. Broken Clouds 1600ft.

Roh: TAF COR USPP 200455Z 2006/2106 36003G13MPS 9999 BKN016 BECMG 2015/2016 04003G08MPS 6000

Aktuelle Satelliten- und Regenbilder für 57.92°N 56.02°O

Die Standortmarkierung ist platziert auf 57.92°N 56.02°O. [Mehr]

Das Echtzeit-Satellitenbild kombiniert sichtbares Licht während des Tages mit Infrarotstrahlung während der Nacht. Nachts ist das Bild nicht dunkel, da Infrarotstrahlung Temperaturunterschiede erkennen kann. Leider sind niedrige Wolken und Nebel nur schwer von den Bodentemperaturen zu unterscheiden und können daher nachts fast unsichtbar sein. Meteosat-Satellitenbilder für Europa werden alle 5 Minuten in Echtzeit aktualisiert. Die Bilder GOES-16 / GOES-17 (Nord- und Südamerika) und Himawari (Asien) werden alle 10 Minuten aktualisiert.

Copyright 2021 EUMETSAT / meteoblue. / Copyright 2021 meteoblue

Radar- und Niederschlags-Nowcast für 57.92°N 56.02°O

Nieselregen
Leicht
Moderat
Stark
Sehr stark
Hagel

Die Ortsmarkierung zeigt auf 57.92°N 56.02°O. Diese Animation zeigt das Niederschlagsradar der letzten Stunde, sowie eine 1h Vorhersage. Nieselregen und leichter Schneefall können für das Radar unsichtbar sein. Die Niederschlagsintensität ist farbcodiert von Hellblau bis Orange.